SYRACUSE 4B

Last updated on Sat Aug 15 2026 00:03:03 GMT+0000 (Coordinated Universal Time)

1 57214U 23093B 26226.42683678 -.00000069 00000+0 00000+0 0 9992 2 57214 0.0125 84.6242 0000222 175.3162 210.1015 1.00271166 7557
UTC large
Height (km)
Speed (km/s)
/
Latitude / Longitude
Inclination (degrees)
Orbital Period (minutes)
Azimuth
Elevation
Range (km)
Doppler Factor

Next 0 passes for location: London (51.5072 / 0.1276)

No passes found over London.
SYRACUSE 4B